Location: Kalispell
(48.1967°N, 114.3128°W)
Time: 00:59:14
(UTC-06:00)

Amateur Radio Satellites - All Passes

Search period start: 01 October 2016 00:29
Search period end: 02 October 2016 00:29
Location: Kalispell, 48.1967°N, 114.3128°W

Satellite Date Start Highest point End Downlink Frequencies (MHz)
Time Altitude Azimuth
TIGRISAT 01 Oct 00:32:19 00:36:39 58° 288° (WNW) 00:41:04 435.000
UKube-1 01 Oct 00:32:55 00:37:01 43° 69° (ENE) 00:41:08 .
NANOSAT C BR1 01 Oct 00:37:44 00:41:15 25° 94° (E) 00:44:44 145.865
SO-50 01 Oct 00:43:53 00:47:59 33° 242° (WSW) 00:52:00 436.795
AISAT 01 Oct 00:44:36 00:49:03 73° 257° (WSW) 00:53:31 437.250
M-CUBED/EXP-1 PRIME 01 Oct 00:55:01 00:58:56 55° 253° (WSW) 01:02:35 437.505
ISS 01 Oct 00:55:16 00:58:32 68° 17° (NNE) 01:01:49 145.825
BEESAT 2 01 Oct 00:59:35 01:02:23 19° 114° (ESE) 01:05:14 435.950
QB50P2 01 Oct 01:04:07 01:08:16 52° 100° (E) 01:12:24 145.880/145.840
POLYITAN 1 01 Oct 01:06:17 01:10:26 52° 100° (E) 01:14:33 437.675
DX 1 01 Oct 01:08:02 01:12:24 67° 258° (WSW) 01:16:45 434.975-435.025
RS-15 01 Oct 01:12:36 01:23:34 36° 359° (N) 01:34:43 29.354- 29.394
UNISAT 6 01 Oct 01:14:45 01:18:14 23° 296° (WNW) 01:21:47 437.425
JAS-2 01 Oct 01:18:21 01:26:10 59° 99° (E) 01:33:31 435.910
TISAT 1 01 Oct 01:19:59 01:23:43 32° 67° (ENE) 01:27:26 437.305
50 SAT 01 Oct 01:22:06 01:25:15 27° 265° (W) 01:28:26 437.505
AO-85 01 Oct 01:23:41 01:24:11 10° 351° (N) 01:24:42 145.980
CUBEBUG 1 01 Oct 01:24:01 01:27:42 26° 266° (W) 01:31:25 437.445
BUGSAT 1 01 Oct 01:27:24 01:31:02 31° 97° (E) 01:34:39 437.445
VELOX 1 01 Oct 01:28:40 01:32:33 29° 265° (W) 01:36:27 145.980
BEESAT 3 01 Oct 01:33:02 01:36:56 75° 125° (SE) 01:40:53 437.485
DUCHIFAT 1 01 Oct 01:39:08 01:43:21 82° 285° (WNW) 01:47:33 145.980
ITUPSAT 1 01 Oct 01:44:44 01:47:40 16° 57° (ENE) 01:50:37 437.325
QB50P1 01 Oct 01:45:15 01:49:25 63° 288° (WNW) 01:53:35 145.935-145.965
ESTCUBE 1 01 Oct 01:47:09 01:48:47 12° 273° (W) 01:50:26 437.505/2401.250
Cosmos 2491 01 Oct 01:47:44 01:56:13 47° 70° (ENE) 02:04:35 435.465 / 435.565
SPROUT 01 Oct 01:48:04 01:51:51 31° 264° (W) 01:55:39 437.525
AUBIESAT-1 01 Oct 01:50:21 01:53:03 18° 260° (W) 01:55:39 437.475
ANTELSAT 01 Oct 01:51:25 01:53:09 12° 303° (WNW) 01:54:54 437.575/2403.000
SWISSCUBE 01 Oct 01:55:01 01:58:38 22° 61° (ENE) 02:02:16 437.505
POPSAT HIP 1 01 Oct 01:59:14 02:03:16 46° 290° (WNW) 02:07:18 437.405
BEESAT 01 Oct 02:07:18 02:11:09 25° 62° (ENE) 02:15:01 436.000
UKube-1 01 Oct 02:09:54 02:13:15 22° 267° (W) 02:16:37 .
NANOSAT C BR1 01 Oct 02:13:13 02:17:03 35° 292° (WNW) 02:20:53 145.865
ISS 01 Oct 02:31:58 02:34:52 29° 216° (SW) 02:37:45 145.825
BEESAT 2 01 Oct 02:35:58 02:39:51 54° 313° (NW) 02:43:47 435.950
QB50P2 01 Oct 02:40:46 02:43:43 19° 298° (WNW) 02:46:40 145.880/145.840
POLYITAN 1 01 Oct 02:42:56 02:45:53 19° 298° (WNW) 02:48:50 437.675
Gurwin Techsat 1B 01 Oct 02:43:22 02:47:28 22° 91° (E) 02:51:33 435.225
YUBILEINY 01 Oct 02:50:52 02:58:44 39° 85° (E) 03:06:34 435.215
TISAT 1 01 Oct 02:55:48 02:59:22 27° 265° (W) 03:02:58 437.305
Oscar 19 01 Oct 02:56:04 03:01:08 53° 100° (E) 03:06:09 437.125/150
BUGSAT 1 01 Oct 03:02:57 03:06:19 26° 294° (WNW) 03:09:42 437.445
MOZHAYETS 4 01 Oct 03:03:21 03:06:13 17° 59° (ENE) 03:09:07
JAS-2 01 Oct 03:03:43 03:10:49 38° 300° (WNW) 03:17:39 435.910
KKS-1 01 Oct 03:04:32 03:06:00 11° 55° (NE) 03:07:27 437.445
AO-85 01 Oct 03:05:01 03:06:43 12° 16° (NNE) 03:08:21 145.980
BEESAT 3 01 Oct 03:12:07 03:15:03 20° 326° (NW) 03:17:59 437.485
DUCHIFAT 1 01 Oct 03:17:16 03:18:20 11° 304° (WNW) 03:19:24 145.980
ITUPSAT 1 01 Oct 03:20:08 03:24:54 79° 256° (WSW) 03:29:44 437.325
Cosmos 2504 01 Oct 03:27:15 03:32:33 22° 80° (E) 03:37:47 435.465 / 435.565
RS-15 01 Oct 03:27:40 03:39:39 51° 32° (NNE) 03:51:34 29.354- 29.394
SWISSCUBE 01 Oct 03:31:23 03:36:04 55° 260° (W) 03:40:47 437.505
BEESAT 01 Oct 03:44:06 03:48:41 47° 261° (W) 03:53:19 436.000
Cosmos 2491 01 Oct 03:44:48 03:53:06 48° 272° (W) 04:01:22 435.465 / 435.565
AIST 2 01 Oct 03:51:15 03:55:06 40° 120° (ESE) 03:59:01 435.215
CUSAT 1 01 Oct 03:55:11 03:56:13 10° 40° (NE) 03:57:14 437.405
PCSat 01 Oct 03:55:22 03:59:30 23° 108° (ESE) 04:03:40 145.827
ITAMSAT 1 01 Oct 03:57:19 04:01:47 28° 94° (E) 04:06:15 435.822/435.867
BEESAT 2 01 Oct 04:16:31 04:18:33 13° 334° (NNW) 04:20:35 435.950
Gurwin Techsat 1B 01 Oct 04:22:35 04:27:49 59° 290° (WNW) 04:33:02 435.225
CUBESAT XI-V 01 Oct 04:32:21 04:35:38 19° 60° (ENE) 04:38:54 437.345
Oscar 19 01 Oct 04:36:00 04:40:09 25° 299° (WNW) 04:44:17 437.125/150
KKS-1 01 Oct 04:37:22 04:41:48 79° 75° (ENE) 04:46:16 437.445
MOZHAYETS 4 01 Oct 04:38:17 04:42:51 72° 258° (WSW) 04:47:29
AO-7 01 Oct 04:43:17 04:50:57 39° 97° (E) 04:58:33 29.400- 29.500
AO-85 01 Oct 04:44:32 04:48:30 34° 40° (NE) 04:52:12 145.980
YUBILEINY 01 Oct 04:46:40 04:55:14 56° 287° (WNW) 05:03:50 435.215
JAS-2 01 Oct 04:51:42 04:53:41 11° 322° (NW) 04:55:40 435.910
STARS 01 Oct 05:01:02 05:05:23 69° 73° (ENE) 05:09:45 437.465
ITUPSAT 1 01 Oct 05:02:59 05:03:33 10° 275° (W) 05:04:08 437.325
Cosmos 2504 01 Oct 05:17:50 05:25:08 75° 281° (W) 05:32:20 435.465 / 435.565
AIST 2 01 Oct 05:30:01 05:33:42 30° 320° (NW) 05:37:25 435.215
CUSAT 1 01 Oct 05:33:44 05:40:53 38° 64° (ENE) 05:46:58 437.405
ITAMSAT 1 01 Oct 05:36:28 05:41:27 46° 293° (WNW) 05:46:25 435.822/435.867
PCSat 01 Oct 05:37:02 05:42:26 67° 307° (NW) 05:47:52 145.827
AIST 1 01 Oct 05:38:35 05:42:50 51° 94° (E) 05:47:04
RS-15 01 Oct 05:40:46 05:53:03 72° 240° (WSW) 06:05:06 29.354- 29.394
HORYU 2 01 Oct 05:45:56 05:48:37 15° 90° (E) 05:51:16 437.375
DANDE 01 Oct 05:56:23 06:03:39 31° 61° (ENE) 06:10:32 436.750
Gurwin Techsat 1B 01 Oct 06:05:10 06:06:43 11° 310° (NW) 06:08:16 435.225
CUBESAT XI-V 01 Oct 06:07:52 06:12:33 64° 259° (WSW) 06:17:15 437.345
KKS-1 01 Oct 06:16:58 06:18:57 13° 272° (W) 06:20:54 437.445
O/OREOS (USA 219) 01 Oct 06:24:25 06:26:06 12° 97° (E) 06:27:48 437.305
AO-85 01 Oct 06:25:07 06:28:54 33° 242° (WSW) 06:32:27 145.980
CUTE-I 01 Oct 06:26:15 06:26:49 10° 84° (E) 06:27:23 437.470
Cubesat XI-IV 01 Oct 06:27:07 06:27:53 10° 84° (E) 06:28:39 437.490
AO-7 01 Oct 06:35:59 06:44:02 58° 298° (WNW) 06:52:05 29.400- 29.500
STARS 01 Oct 06:39:52 06:42:13 14° 271° (W) 06:44:34 437.465
YUBILEINY 01 Oct 06:50:06 06:54:28 14° 313° (NW) 06:58:51 435.215
GOMX 1 01 Oct 06:50:53 06:53:48 17° 89° (E) 06:56:38 467.674
STRAND 1 01 Oct 07:02:49 07:07:18 32° 64° (ENE) 07:11:48 437.568
AIST 2 01 Oct 07:12:42 07:13:28 10° 343° (NNW) 07:14:16 435.215
Cosmos 2504 01 Oct 07:15:40 07:19:56 16° 305° (NW) 07:24:12 435.465 / 435.565
CUSAT 1 01 Oct 07:15:49 07:23:12 52° 268° (W) 07:29:21 437.405
AIST 1 01 Oct 07:17:40 07:20:45 18° 293° (WNW) 07:23:50
GONETS M04 01 Oct 07:18:48 07:22:52 14° 70° (ENE) 07:26:56
BRITE-PL 01 Oct 07:19:42 07:24:31 78° 103° (ESE) 07:28:57 437.365/2234.400
HORYU 2 01 Oct 07:21:10 07:25:36 65° 287° (WNW) 07:30:01 437.375
PCSat 01 Oct 07:23:04 07:26:53 19° 330° (NNW) 07:30:41 145.827
NOAA 15 01 Oct 07:33:57 07:39:05 47° 99° (E) 07:44:10 137.62
NOAA 18 01 Oct 07:35:26 07:40:21 33° 96° (E) 07:45:16 137.9125
BEESAT 2 01 Oct 07:36:26 07:37:53 12° 22° (NNE) 07:39:19 435.950
DANDE 01 Oct 07:38:51 07:47:18 77° 262° (W) 07:55:00 436.750
LilacSat-2 01 Oct 07:48:59 07:52:48 59° 101° (E) 07:56:37 437.200
RS-15 01 Oct 07:55:12 08:03:15 21° 264° (W) 08:11:13 29.354- 29.394
O/OREOS (USA 219) 01 Oct 08:00:11 08:04:46 88° 295° (WNW) 08:09:25 437.305
CUTE-I 01 Oct 08:02:29 08:07:51 69° 103° (ESE) 08:13:12 437.470
Cubesat XI-IV 01 Oct 08:03:34 08:08:56 70° 103° (ESE) 08:14:17 437.490
BEESAT 3 01 Oct 08:09:41 08:12:57 23° 37° (NE) 08:16:12 437.485
Cosmos 2499 01 Oct 08:19:07 08:24:32 24° 81° (E) 08:29:58 435.465 / 435.565
CUTE 1.7 + AOD 2 01 Oct 08:26:45 08:29:14 15° 89° (E) 08:31:42 437.475
GOMX 1 01 Oct 08:28:02 08:32:19 51° 289° (WNW) 08:36:23 467.674
CANX-2 01 Oct 08:28:26 08:31:23 18° 90° (E) 08:34:18 2200.000
DOVE 4 01 Oct 08:29:59 08:34:12 75° 103° (ESE) 08:38:20 437.250
AO-7 01 Oct 08:30:08 08:35:09 18° 321° (NW) 08:40:12 29.400- 29.500
STRAND 1 01 Oct 08:41:35 08:46:22 40° 262° (W) 08:51:12 437.568
BRITE-PL 01 Oct 08:59:32 09:02:18 15° 304° (WNW) 09:04:58 437.365/2234.400
CUSAT 1 01 Oct 09:02:19 09:03:11 10° 290° (WNW) 09:04:01 437.405
PRISM 01 Oct 09:03:21 09:07:17 42° 69° (ENE) 09:11:14 437.425
GONETS M04 01 Oct 09:09:08 09:17:48 64° 93° (E) 09:26:31
PCSat 01 Oct 09:11:58 09:12:36 10° 356° (N) 09:13:15 145.827
BEESAT 2 01 Oct 09:12:56 09:16:46 40° 44° (NE) 09:20:34 435.950
CINEMA 3 01 Oct 09:13:57 09:18:05 58° 101° (E) 09:22:20 145.822/145.860
NOAA 15 01 Oct 09:14:09 09:18:39 29° 298° (WNW) 09:23:07 137.62
NOAA 18 01 Oct 09:15:59 09:21:07 42° 295° (WNW) 09:26:14 137.9125
COMPASS 1 01 Oct 09:19:59 09:23:31 25° 94° (E) 09:27:01 437.405
HO-68 01 Oct 09:23:09 09:30:10 54° 101° (E) 09:37:08 435.675
DANDE 01 Oct 09:23:17 09:28:44 20° 283° (WNW) 09:33:57 436.750
LilacSat-2 01 Oct 09:24:33 09:26:40 14° 298° (WNW) 09:28:47 437.200
ANTELSAT 01 Oct 09:40:18 09:42:57 16° 60° (ENE) 09:45:38 437.575/2403.000
O/OREOS (USA 219) 01 Oct 09:42:07 09:44:54 16° 316° (NW) 09:47:42 437.305
FUNcube-1 01 Oct 09:42:50 09:45:23 15° 89° (E) 09:47:57 145.935
CUTE-I 01 Oct 09:43:27 09:47:24 21° 302° (WNW) 09:51:21 437.470
Cubesat XI-IV 01 Oct 09:44:35 09:48:31 21° 302° (WNW) 09:52:26 437.490
BEESAT 3 01 Oct 09:46:59 09:50:54 56° 236° (WSW) 09:54:47 437.485
JAS-2 01 Oct 09:55:14 09:57:10 11° 38° (NE) 09:59:08 435.910
SEEDS 01 Oct 09:55:24 09:59:42 82° 103° (ESE) 10:03:58 437.485
CUBEBUG 2 01 Oct 09:55:30 09:59:39 45° 99° (E) 10:03:55 437.445
TIGRISAT 01 Oct 09:58:55 10:02:14 23° 63° (ENE) 10:05:34 435.000
CUTE 1.7 + AOD 2 01 Oct 10:01:14 10:05:30 63° 287° (WNW) 10:09:44 437.475
CANX-2 01 Oct 10:03:20 10:07:33 52° 288° (WNW) 10:11:44 2200.000
UWE-3 01 Oct 10:05:26 10:09:32 39° 98° (E) 10:13:42 435.000/436.395/437.385
AAUSAT CUBESAT 2 01 Oct 10:06:44 10:10:55 60° 101° (E) 10:15:03 437.432
DOVE 4 01 Oct 10:09:20 10:11:21 13° 302° (WNW) 10:13:20 437.250
Cosmos 2499 01 Oct 10:09:55 10:16:57 68° 283° (WNW) 10:24:05 435.465 / 435.565
Oscar 11 01 Oct 10:16:44 10:20:41 32° 96° (E) 10:24:35 145.826/435.025
ZACube-1 01 Oct 10:25:57 10:30:05 41° 98° (E) 10:34:19 437.345
AIST 2 01 Oct 10:31:10 10:34:08 18° 31° (NNE) 10:37:06 435.215
PRISM 01 Oct 10:39:34 10:42:46 21° 267° (W) 10:45:59 437.425
UNISAT 6 01 Oct 10:39:47 10:43:58 59° 72° (ENE) 10:48:11 437.425
BEESAT 2 01 Oct 10:51:02 10:54:26 27° 243° (WSW) 10:57:49 435.950
CINEMA 3 01 Oct 10:52:11 10:54:52 17° 298° (WNW) 10:57:35 145.822/145.860
DELFI C3 01 Oct 10:53:38 10:57:15 31° 96° (E) 11:00:49 145.870
PHONESAT 2.4 01 Oct 10:53:51 10:55:20 13° 165° (SSE) 10:56:50 2401.200-2431.200
COMPASS 1 01 Oct 10:55:17 10:59:09 35° 291° (WNW) 11:02:59 437.405
PCSat 01 Oct 10:55:29 10:58:32 15° 23° (NNE) 11:01:34 145.827
DUCHIFAT 1 01 Oct 11:00:52 11:03:08 14° 59° (ENE) 11:05:25 145.980
QB50P1 01 Oct 11:06:42 11:09:36 18° 62° (ENE) 11:12:30 145.935-145.965
GONETS M04 01 Oct 11:07:19 11:15:14 35° 295° (WNW) 11:23:12
HO-68 01 Oct 11:11:15 11:17:40 37° 301° (WNW) 11:24:05 435.675
ANTELSAT 01 Oct 11:15:01 11:19:13 62° 258° (WSW) 11:23:29 437.575/2403.000
FUNcube-1 01 Oct 11:17:43 11:22:02 65° 287° (WNW) 11:26:26 145.935
POPSAT HIP 1 01 Oct 11:20:04 11:23:25 24° 64° (ENE) 11:26:47 437.405
CUBEBUG 2 01 Oct 11:32:45 11:36:02 22° 296° (WNW) 11:39:23 437.445
SEEDS 01 Oct 11:32:46 11:34:47 13° 302° (WNW) 11:36:47 437.485
NANOSAT C BR1 01 Oct 11:33:11 11:36:51 30° 66° (ENE) 11:40:31 145.865
JAS-2 01 Oct 11:33:45 11:40:04 40° 61° (ENE) 11:47:01 435.910
TIGRISAT 01 Oct 11:34:42 11:38:43 41° 262° (W) 11:42:46 435.000
UWE-3 01 Oct 11:42:18 11:45:50 25° 295° (WNW) 11:49:25 435.000/436.395/437.385
AAUSAT CUBESAT 2 01 Oct 11:43:17 11:45:57 17° 299° (WNW) 11:48:36 437.432
HUMSAT D 01 Oct 11:47:35 11:51:50 61° 101° (ESE) 11:56:04 437.325/437.525
Oscar 11 01 Oct 11:52:57 11:56:45 30° 294° (WNW) 12:00:32 145.826/435.025
ESTCUBE 1 01 Oct 11:57:03 11:59:33 14° 89° (E) 12:02:02 437.505/2401.250
QB50P2 01 Oct 11:59:54 12:04:03 62° 73° (ENE) 12:08:13 145.880/145.840
POLYITAN 1 01 Oct 12:02:04 12:06:13 62° 73° (ENE) 12:10:22 437.675
ZACube-1 01 Oct 12:02:43 12:06:11 24° 295° (WNW) 12:09:43 437.345
Cosmos 2499 01 Oct 12:08:02 12:11:42 14° 307° (NW) 12:15:24 435.465 / 435.565
AIST 2 01 Oct 12:09:00 12:13:14 85° 53° (NE) 12:17:26 435.215
UNISAT 6 01 Oct 12:18:33 12:21:05 15° 270° (W) 12:23:39 437.425
BUGSAT 1 01 Oct 12:20:24 12:24:08 36° 69° (ENE) 12:27:51 437.445
DELFI C3 01 Oct 12:28:36 12:32:00 26° 294° (WNW) 12:35:21 145.870
PHONESAT 2.4 01 Oct 12:28:40 12:30:47 18° 181° (S) 12:32:56 2401.200-2431.200
AISAT 01 Oct 12:32:10 12:34:57 16° 90° (E) 12:37:43 437.250
DUCHIFAT 1 01 Oct 12:34:09 12:38:19 71° 259° (WSW) 12:42:30 145.980
PCSat 01 Oct 12:38:10 12:43:22 44° 46° (NE) 12:48:34 145.827
Oscar 19 01 Oct 12:39:20 12:42:53 19° 57° (ENE) 12:46:26 437.125/150
QB50P1 01 Oct 12:40:55 12:45:01 53° 260° (W) 12:49:09 145.935-145.965
50 SAT 01 Oct 12:46:15 12:48:49 18° 92° (E) 12:51:23 437.505
DX 1 01 Oct 12:53:39 12:56:21 16° 90° (E) 12:59:03 434.975-435.025
POPSAT HIP 1 01 Oct 12:55:06 12:59:01 38° 262° (W) 13:02:58 437.405
YUBILEINY 01 Oct 12:55:52 13:02:38 24° 58° (ENE) 13:09:21 435.215
CUBEBUG 1 01 Oct 13:08:02 13:12:12 44° 99° (E) 13:16:19 437.445
NANOSAT C BR1 01 Oct 13:08:52 13:12:33 29° 264° (W) 13:16:14 145.865
VELOX 1 01 Oct 13:14:25 13:18:35 39° 98° (E) 13:22:42 145.980
Cosmos 2504 01 Oct 13:14:42 13:16:29 11° 49° (NE) 13:18:16 435.465 / 435.565
JAS-2 01 Oct 13:18:18 13:24:54 51° 263° (W) 13:32:15 435.910
HUMSAT D 01 Oct 13:24:17 13:27:01 17° 299° (WNW) 13:29:45 437.325/437.525
AUBIESAT-1 01 Oct 13:24:56 13:26:39 13° 98° (E) 13:28:22 437.475
SPROUT 01 Oct 13:29:47 13:33:40 33° 96° (E) 13:37:32 437.525
ESTCUBE 1 01 Oct 13:32:20 13:36:53 71° 286° (WNW) 13:41:22 437.505/2401.250
QB50P2 01 Oct 13:37:55 13:40:16 15° 271° (W) 13:42:38 145.880/145.840
POLYITAN 1 01 Oct 13:40:07 13:42:26 14° 271° (W) 13:44:46 437.675
ITAMSAT 1 01 Oct 13:43:46 13:45:16 11° 51° (NE) 13:46:47 435.822/435.867
AIST 2 01 Oct 13:49:13 13:51:06 13° 250° (WSW) 13:52:59 435.215
UKube-1 01 Oct 13:52:03 13:56:14 46° 100° (E) 14:00:22 .
BUGSAT 1 01 Oct 13:56:20 13:59:36 23° 266° (W) 14:02:52 437.445
AO-7 01 Oct 13:56:53 14:02:42 22° 43° (NE) 14:08:31 29.400- 29.500
M-CUBED/EXP-1 PRIME 01 Oct 14:04:47 14:08:00 49° 107° (ESE) 14:11:11 437.505
PHONESAT 2.4 01 Oct 14:05:05 14:06:13 12° 198° (SSW) 14:07:21 2401.200-2431.200
AISAT 01 Oct 14:07:29 14:11:49 59° 288° (WNW) 14:16:07 437.250
Gurwin Techsat 1B 01 Oct 14:07:42 14:12:47 49° 68° (ENE) 14:17:54 435.225
Oscar 19 01 Oct 14:16:26 14:21:38 76° 257° (WSW) 14:26:52 437.125/150
50 SAT 01 Oct 14:19:03 14:22:28 37° 290° (WNW) 14:25:52 437.505
PCSat 01 Oct 14:21:46 14:26:43 37° 247° (WSW) 14:31:38 145.827
DX 1 01 Oct 14:28:39 14:32:56 59° 289° (WNW) 14:37:11 434.975-435.025
TISAT 1 01 Oct 14:35:20 14:39:09 33° 97° (E) 14:42:56 437.305
CUBEBUG 1 01 Oct 14:44:53 14:48:14 22° 297° (WNW) 14:51:35 437.445
VELOX 1 01 Oct 14:51:15 14:54:52 25° 296° (WNW) 14:58:28 145.980
YUBILEINY 01 Oct 14:51:59 15:00:45 90° 250° (WSW) 15:09:28 435.215
Cosmos 2491 01 Oct 14:53:31 15:01:44 46° 87° (E) 15:09:59 435.465 / 435.565
AUBIESAT-1 01 Oct 14:58:13 15:01:23 42° 294° (WNW) 15:04:33 437.475
SO-50 01 Oct 15:00:48 15:05:08 34° 118° (ESE) 15:09:26 436.795
Cosmos 2504 01 Oct 15:04:45 15:11:58 49° 73° (ENE) 15:19:37 435.465 / 435.565
SPROUT 01 Oct 15:05:54 15:09:31 27° 294° (WNW) 15:13:07 437.525
ESTCUBE 1 01 Oct 15:11:47 15:12:50 11° 306° (NW) 15:13:55 437.505/2401.250
ITUPSAT 1 01 Oct 15:17:37 15:21:14 21° 92° (E) 15:24:50 437.325
ITAMSAT 1 01 Oct 15:18:38 15:23:43 61° 70° (ENE) 15:28:51 435.822/435.867
SWISSCUBE 01 Oct 15:28:01 15:32:12 29° 95° (E) 15:36:21 437.505
UKube-1 01 Oct 15:28:43 15:32:00 21° 298° (WNW) 15:35:15 .
BEESAT 01 Oct 15:40:25 15:44:46 33° 96° (E) 15:49:05 436.000
M-CUBED/EXP-1 PRIME 01 Oct 15:40:35 15:42:13 13° 304° (NW) 15:43:49 437.505
AIST 1 01 Oct 15:42:24 15:45:32 19° 67° (ENE) 15:48:37
AO-7 01 Oct 15:45:55 15:54:10 71° 65° (ENE) 16:02:25 29.400- 29.500
Gurwin Techsat 1B 01 Oct 15:48:32 15:52:58 27° 267° (W) 15:57:27 435.225
Oscar 19 01 Oct 16:00:24 16:01:50 11° 275° (W) 16:03:16 437.125/150
TISAT 1 01 Oct 16:11:12 16:14:42 26° 295° (WNW) 16:18:12 437.305
KKS-1 01 Oct 16:26:53 16:28:17 11° 87° (E) 16:29:43 437.445
O/OREOS (USA 219) 01 Oct 16:27:31 16:31:57 44° 57° (ENE) 16:36:20 437.305
MOZHAYETS 4 01 Oct 16:30:11 16:33:45 21° 92° (E) 16:37:18
SO-50 01 Oct 16:40:56 16:45:32 44° 317° (NW) 16:50:06 436.795
HORYU 2 01 Oct 16:47:06 16:50:35 23° 63° (ENE) 16:54:05 437.375
Cosmos 2491 01 Oct 16:50:08 16:58:34 48° 289° (WNW) 17:07:05 435.465 / 435.565
YUBILEINY 01 Oct 16:50:14 16:56:21 22° 284° (WNW) 17:02:27 435.215
ITUPSAT 1 01 Oct 16:54:42 16:59:24 54° 290° (WNW) 17:04:06 437.325
BRITE-PL 01 Oct 16:56:05 17:00:20 23° 61° (ENE) 17:04:27 437.365/2234.400
Cosmos 2504 01 Oct 16:58:26 17:05:12 38° 273° (W) 17:12:21 435.465 / 435.565
ITAMSAT 1 01 Oct 16:59:46 17:03:37 21° 269° (W) 17:07:29 435.822/435.867
SWISSCUBE 01 Oct 17:05:37 17:10:05 39° 293° (WNW) 17:14:32 437.505
BEESAT 01 Oct 17:18:13 17:22:32 34° 295° (WNW) 17:26:50 436.000
AIST 1 01 Oct 17:19:17 17:23:24 46° 267° (W) 17:27:27
NOAA 15 01 Oct 17:20:04 17:23:43 19° 56° (ENE) 17:27:23 137.62
NOAA 18 01 Oct 17:27:35 17:30:53 17° 53° (NE) 17:34:11 137.9125
AO-7 01 Oct 17:40:31 17:47:36 30° 266° (W) 17:54:43 29.400- 29.500
CUTE-I 01 Oct 17:49:24 17:53:45 26° 61° (ENE) 17:58:06 437.470
Cubesat XI-IV 01 Oct 17:50:37 17:54:59 27° 61° (ENE) 17:59:22 437.490
KKS-1 01 Oct 18:01:02 18:05:29 86° 285° (WNW) 18:09:55 437.445
CUBESAT XI-V 01 Oct 18:01:10 18:05:04 25° 93° (E) 18:08:54 437.345
GOMX 1 01 Oct 18:01:14 18:05:54 34° 67° (ENE) 18:10:20 467.674
DOVE 4 01 Oct 18:03:01 18:05:57 16° 60° (ENE) 18:08:47 437.250
Cosmos 2499 01 Oct 18:04:29 18:07:29 12° 51° (NE) 18:10:32 435.465 / 435.565
RS-15 01 Oct 18:04:59 18:09:15 13° 90° (E) 18:13:33 29.354- 29.394
MOZHAYETS 4 01 Oct 18:06:41 18:11:11 50° 290° (WNW) 18:15:40
O/OREOS (USA 219) 01 Oct 18:07:23 18:11:08 25° 257° (WSW) 18:14:50 437.305
HO-68 01 Oct 18:12:01 18:15:52 16° 44° (NE) 18:19:43 435.675
HORYU 2 01 Oct 18:22:41 18:26:54 44° 261° (W) 18:31:09 437.375
STARS 01 Oct 18:22:53 18:27:17 80° 105° (ESE) 18:31:39 437.465
SO-50 01 Oct 18:24:29 18:27:12 15° 339° (NNW) 18:29:53 436.795
BRITE-PL 01 Oct 18:32:41 18:38:21 69° 259° (WSW) 18:43:48 437.365/2234.400
LilacSat-2 01 Oct 18:34:14 18:37:51 48° 72° (ENE) 18:41:31 437.200
CUSAT 1 01 Oct 18:38:18 18:44:12 31° 84° (E) 18:50:49 437.405
CINEMA 3 01 Oct 18:45:50 18:46:48 11° 57° (ENE) 18:47:47 145.822/145.860
Cosmos 2491 01 Oct 18:54:54 18:58:15 12° 316° (NW) 19:01:36 435.465 / 435.565
NOAA 15 01 Oct 18:57:35 19:02:54 78° 256° (WSW) 19:08:15 137.62
NOAA 18 01 Oct 19:05:19 19:10:47 86° 73° (ENE) 19:16:16 137.9125
DANDE 01 Oct 19:09:37 19:13:57 20° 77° (ENE) 19:18:59 436.750
GONETS M04 01 Oct 19:14:57 19:23:06 39° 67° (ENE) 19:31:08
ISS 01 Oct 19:15:34 19:16:59 12° 135° (SE) 19:18:24 145.825
SEEDS 01 Oct 19:17:52 19:19:22 12° 57° (ENE) 19:20:53 437.485
CUTE 1.7 + AOD 2 01 Oct 19:22:55 19:25:46 18° 61° (ENE) 19:28:39 437.475
CANX-2 01 Oct 19:24:41 19:27:52 21° 63° (ENE) 19:31:03 2200.000
CUTE-I 01 Oct 19:28:19 19:33:30 53° 260° (W) 19:38:44 437.470
Cubesat XI-IV 01 Oct 19:29:36 19:34:46 52° 260° (W) 19:40:00 437.490
CUBESAT XI-V 01 Oct 19:38:10 19:42:37 42° 291° (WNW) 19:47:00 437.345
DOVE 4 01 Oct 19:38:19 19:43:11 74° 257° (WSW) 19:47:48 437.250
GOMX 1 01 Oct 19:39:03 19:43:56 37° 263° (W) 19:48:34 467.674
KKS-1 01 Oct 19:39:31 19:41:22 12° 304° (NW) 19:43:12 437.445
Cosmos 2499 01 Oct 19:55:07 20:02:32 54° 74° (ENE) 20:10:30 435.465 / 435.565
HO-68 01 Oct 19:55:12 20:02:11 58° 66° (ENE) 20:09:11 435.675
STARS 01 Oct 20:00:46 20:03:02 14° 303° (WNW) 20:05:19 437.465
RS-15 01 Oct 20:07:24 20:18:34 56° 114° (ESE) 20:30:16 29.354- 29.394
SO-50 01 Oct 20:08:31 20:09:42 11° 4° (N) 20:10:51 436.795
LilacSat-2 01 Oct 20:10:12 20:12:27 15° 270° (W) 20:14:42 437.200
COMPASS 1 01 Oct 20:14:04 20:17:37 27° 66° (ENE) 20:21:12 437.405
BRITE-PL 01 Oct 20:16:09 20:17:41 11° 276° (W) 20:19:12 437.365/2234.400
CUSAT 1 01 Oct 20:18:41 20:25:36 67° 286° (WNW) 20:33:35 437.405
CINEMA 3 01 Oct 20:18:55 20:23:17 81° 77° (ENE) 20:27:31 145.822/145.860
AO-85 01 Oct 20:41:39 20:46:13 33° 118° (ESE) 20:50:33 145.980
NOAA 15 01 Oct 20:41:40 20:43:33 12° 274° (W) 20:45:26 137.62
FUNcube-1 01 Oct 20:42:04 20:44:52 18° 62° (ENE) 20:47:42 145.935
STRAND 1 01 Oct 20:47:51 20:52:55 53° 100° (E) 20:57:56 437.568
NOAA 18 01 Oct 20:49:00 20:52:09 15° 272° (W) 20:55:19 137.9125
DANDE 01 Oct 20:49:35 20:55:30 84° 282° (WNW) 21:03:10 436.750
ISS 01 Oct 20:49:43 20:52:56 64° 152° (SSE) 20:56:11 145.825
SEEDS 01 Oct 20:50:09 20:54:23 88° 76° (ENE) 20:58:40 437.485
CUTE 1.7 + AOD 2 01 Oct 20:57:02 21:01:13 57° 260° (W) 21:05:27 437.475
CUBEBUG 2 01 Oct 20:57:05 21:01:10 57° 72° (ENE) 21:05:15 437.445
CANX-2 01 Oct 20:59:19 21:03:25 47° 261° (W) 21:07:34 2200.000
AAUSAT CUBESAT 2 01 Oct 21:00:00 21:04:07 62° 73° (ENE) 21:08:17 437.432
UWE-3 01 Oct 21:05:56 21:09:54 47° 71° (ENE) 21:13:55 435.000/436.395/437.385
GONETS M04 01 Oct 21:11:46 21:20:19 57° 270° (W) 21:28:45
Oscar 11 01 Oct 21:14:44 21:18:44 38° 69° (ENE) 21:22:47 145.826/435.025
ZACube-1 01 Oct 21:25:13 21:29:12 48° 71° (ENE) 21:33:14 437.345
DELFI C3 01 Oct 21:42:44 21:46:15 30° 67° (ENE) 21:49:48 145.870
HO-68 01 Oct 21:43:56 21:50:15 33° 265° (W) 21:56:37 435.675
SO-50 01 Oct 21:48:31 21:51:59 20° 29° (NNE) 21:55:23 436.795
Cosmos 2499 01 Oct 21:48:39 21:55:24 36° 274° (W) 22:02:37 435.465 / 435.565
COMPASS 1 01 Oct 21:49:17 21:53:05 33° 264° (W) 21:56:55 437.405
CINEMA 3 01 Oct 21:59:40 22:00:59 11° 272° (W) 22:02:17 145.822/145.860
CUSAT 1 01 Oct 22:04:25 22:09:20 18° 309° (NW) 22:14:33 437.405
PRISM 01 Oct 22:16:17 22:20:12 40° 99° (E) 22:24:04 437.425
FUNcube-1 01 Oct 22:16:44 22:20:45 52° 260° (W) 22:24:51 145.935
RS-15 01 Oct 22:19:24 22:31:07 61° 321° (NW) 22:43:21 29.354- 29.394
AO-85 01 Oct 22:21:43 22:26:37 46° 315° (NW) 22:31:10 145.980
ISS 01 Oct 22:26:22 22:29:32 47° 352° (N) 22:32:43 145.825
STRAND 1 01 Oct 22:27:36 22:31:47 26° 299° (WNW) 22:35:58 437.568
SEEDS 01 Oct 22:30:07 22:30:43 10° 274° (W) 22:31:20 437.485
DANDE 01 Oct 22:35:02 22:39:46 21° 308° (NW) 22:45:14 436.750
CUBEBUG 2 01 Oct 22:35:46 22:38:11 15° 270° (W) 22:40:37 437.445
AAUSAT CUBESAT 2 01 Oct 22:37:43 22:40:00 14° 271° (W) 22:42:20 437.432
HUMSAT D 01 Oct 22:42:02 22:46:06 66° 73° (ENE) 22:50:14 437.325/437.525
UWE-3 01 Oct 22:43:49 22:46:40 18° 269° (W) 22:49:32 435.000/436.395/437.385
Oscar 11 01 Oct 22:51:29 22:55:00 24° 267° (W) 22:58:33 145.826/435.025
ESTCUBE 1 01 Oct 22:59:40 23:03:07 22° 62° (ENE) 23:06:35 437.505/2401.250
ZACube-1 01 Oct 23:02:59 23:05:47 18° 269° (W) 23:08:38 437.345
ANTELSAT 01 Oct 23:03:13 23:06:37 21° 92° (E) 23:10:03 437.575/2403.000
GONETS M04 01 Oct 23:12:17 23:15:01 12° 292° (WNW) 23:17:43
DELFI C3 01 Oct 23:17:39 23:21:05 27° 265° (W) 23:24:33 145.870
M-CUBED/EXP-1 PRIME 01 Oct 23:21:38 23:23:50 15° 57° (ENE) 23:25:57 437.505
TIGRISAT 01 Oct 23:22:05 23:26:00 30° 95° (E) 23:29:58 435.000
50 SAT 01 Oct 23:26:48 23:28:58 15° 62° (ENE) 23:31:08 437.505
SO-50 01 Oct 23:28:32 23:33:11 82° 52° (NE) 23:37:41 436.795
AISAT 01 Oct 23:32:38 23:36:11 24° 63° (ENE) 23:39:44 437.250
PRISM 01 Oct 23:52:03 23:55:18 23° 297° (WNW) 23:58:31 437.425
DX 1 01 Oct 23:52:16 23:55:44 23° 63° (ENE) 23:59:12 434.975-435.025
ISS 02 Oct 00:03:08 00:06:21 52° 12° (NNE) 00:09:35 145.825
UNISAT 6 02 Oct 00:03:54 00:08:22 81° 103° (ESE) 00:12:54 437.425
AO-85 02 Oct 00:05:23 00:08:07 15° 336° (NNW) 00:10:46 145.980
CUBEBUG 1 02 Oct 00:07:03 00:11:23 58° 72° (ENE) 00:15:43 437.445
AUBIESAT-1 02 Oct 00:13:00 00:16:35 38° 64° (ENE) 00:19:55 437.475
VELOX 1 02 Oct 00:14:49 00:19:10 55° 71° (ENE) 00:23:31 145.980
DUCHIFAT 1 02 Oct 00:15:52 00:18:09 14° 89° (E) 00:20:25 145.980
HUMSAT D 02 Oct 00:20:12 00:22:11 13° 272° (W) 00:24:12 437.325/437.525
QB50P1 02 Oct 00:22:33 00:25:35 19° 92° (E) 00:28:36 145.935-145.965
